Time,TemperatureF,DewpointF,PressureIn,WindDirection,WindDirectionDegrees,WindSpeedMPH,WindSpeedGustMPH,Humidity,HourlyPrecipIn,Conditions,Clouds,dailyrainin,SoftwareType,DateUTC
2013-01-30 00:11:00,71.7,65.0,30.11,ESE,103,0.0,2.0,80,0.00,,,0.00,weatherlink.com 1.10,2013-01-30 05:11:00,
2013-01-30 00:26:00,71.7,65.0,30.11,NNE,28,0.0,6.0,80,0.00,,,0.00,weatherlink.com 1.10,2013-01-30 05:26:00,
2013-01-30 00:41:00,72.0,66.0,30.11,North,360,0.0,4.0,80,0.00,,,0.00,weatherlink.com 1.10,2013-01-30 05:41:00,
2013-01-30 00:56:00,72.0,66.0,30.10,NNW,327,0.0,3.0,81,0.00,,,0.00,weatherlink.com 1.10,2013-01-30 05:56:00,
2013-01-30 01:11:00,71.9,66.0,30.09,SW,229,0.0,3.0,81,0.00,,,0.00,weatherlink.com 1.10,2013-01-30 06:11:00,
2013-01-30 01:26:00,71.9,65.0,30.09,SSW,213,0.0,4.0,80,0.00,,,0.00,weatherlink.com 1.10,2013-01-30 06:26:00,
2013-01-30 01:41:00,71.9,66.0,30.09,NE,34,2.0,3.0,81,0.00,,,0.00,weatherlink.com 1.10,2013-01-30 06:41:00,
2013-01-30 01:56:00,72.1,66.0,30.09,NE,42,0.0,3.0,81,0.00,,,0.00,weatherlink.com 1.10,2013-01-30 06:56:00,
2013-01-30 02:11:00,72.0,66.0,30.09,SSW,199,0.0,4.0,82,0.00,,,0.00,weatherlink.com 1.10,2013-01-30 07:11:00,
2013-01-30 02:27:00,71.9,66.0,30.09,NNW,333,1.0,2.0,81,0.00,,,0.00,weatherlink.com 1.10,2013-01-30 07:27:00,
2013-01-30 02:41:00,72.0,66.0,30.09,ESE,112,0.0,2.0,82,0.00,,,0.00,weatherlink.com 1.10,2013-01-30 07:41:00,
2013-01-30 02:56:00,72.0,66.0,30.09,NE,36,0.0,1.0,82,0.00,,,0.00,weatherlink.com 1.10,2013-01-30 07:56:00,
2013-01-30 03:12:00,71.8,66.0,30.09,NE,52,0.0,3.0,82,0.00,,,0.00,weatherlink.com 1.10,2013-01-30 08:12:00,
2013-01-30 03:27:00,71.7,66.0,30.09,NE,53,1.0,5.0,82,0.00,,,0.00,weatherlink.com 1.10,2013-01-30 08:27:00,
2013-01-30 03:41:00,71.5,66.0,30.09,NE,46,0.0,1.0,82,0.00,,,0.00,weatherlink.com 1.10,2013-01-30 08:41:00,
2013-01-30 03:56:00,71.2,66.0,30.09,WNW,283,0.0,2.0,82,0.00,,,0.00,weatherlink.com 1.10,2013-01-30 08:56:00,
2013-01-30 04:11:00,71.2,66.0,30.08,NW,308,1.0,2.0,82,0.00,,,0.00,weatherlink.com 1.10,2013-01-30 09:11:00,
2013-01-30 04:27:00,71.2,66.0,30.08,SW,216,0.0,1.0,82,0.00,,,0.00,weatherlink.com 1.10,2013-01-30 09:27:00,
2013-01-30 04:42:00,71.3,66.0,30.07,NNW,330,0.0,2.0,82,0.00,,,0.00,weatherlink.com 1.10,2013-01-30 09:42:00,
2013-01-30 04:57:00,71.2,66.0,30.07,WNW,286,0.0,4.0,82,0.00,,,0.00,weatherlink.com 1.10,2013-01-30 09:57:00,
2013-01-30 05:11:00,71.0,66.0,30.07,NE,39,0.0,1.0,83,0.00,,,0.00,weatherlink.com 1.10,2013-01-30 10:11:00,
2013-01-30 05:26:00,70.9,66.0,30.07,North,360,0.0,2.0,83,0.00,,,0.00,weatherlink.com 1.10,2013-01-30 10:26:00,
2013-01-30 05:41:00,70.7,65.0,30.07,SSW,198,0.0,2.0,83,0.00,,,0.00,weatherlink.com 1.10,2013-01-30 10:41:00,
2013-01-30 05:56:00,70.8,65.0,30.07,ESE,113,0.0,3.0,83,0.00,,,0.00,weatherlink.com 1.10,2013-01-30 10:56:00,
2013-01-30 06:12:00,70.8,65.0,30.08,NE,42,0.0,2.0,83,0.00,,,0.00,weatherlink.com 1.10,2013-01-30 11:12:00,
2013-01-30 06:27:00,70.5,65.0,30.09,ENE,70,1.0,1.0,83,0.00,,,0.00,weatherlink.com 1.10,2013-01-30 11:27:00,
2013-01-30 06:42:00,70.4,65.0,30.08,SE,133,0.0,2.0,83,0.00,,,0.00,weatherlink.com 1.10,2013-01-30 11:42:00,
2013-01-30 06:56:00,70.1,65.0,30.08,East,98,0.0,1.0,84,0.00,,,0.00,weatherlink.com 1.10,2013-01-30 11:56:00,
2013-01-30 07:11:00,70.0,65.0,30.09,West,265,0.0,1.0,84,0.00,,,0.00,weatherlink.com 1.10,2013-01-30 12:11:00,
2013-01-30 07:27:00,70.2,65.0,30.09,SSW,207,0.0,2.0,83,0.00,,,0.00,weatherlink.com 1.10,2013-01-30 12:27:00,
2013-01-30 07:42:00,70.6,65.0,30.09,SSW,196,0.0,2.0,83,0.00,,,0.00,weatherlink.com 1.10,2013-01-30 12:42:00,
2013-01-30 07:57:00,71.5,65.0,30.09,North,9,0.0,2.0,81,0.00,,,0.00,weatherlink.com 1.10,2013-01-30 12:57:00,
2013-01-30 08:12:00,72.3,65.0,30.09,NE,40,2.0,3.0,79,0.00,,,0.00,weatherlink.com 1.10,2013-01-30 13:12:00,
2013-01-30 08:26:00,73.2,65.0,30.09,NE,52,0.0,5.0,76,0.00,,,0.00,weatherlink.com 1.10,2013-01-30 13:26:00,
2013-01-30 08:41:00,73.8,65.0,30.09,East,92,0.0,3.0,74,0.00,,,0.00,weatherlink.com 1.10,2013-01-30 13:41:00,
2013-01-30 08:57:00,74.0,66.0,30.09,ENE,78,0.0,3.0,75,0.00,,,0.00,weatherlink.com 1.10,2013-01-30 13:57:00,
2013-01-30 09:12:00,75.8,67.0,30.09,West,280,1.0,3.0,73,0.00,,,0.00,weatherlink.com 1.10,2013-01-30 14:12:00,
2013-01-30 09:27:00,76.1,67.0,30.09,East,96,0.0,4.0,73,0.00,,,0.00,weatherlink.com 1.10,2013-01-30 14:27:00,
2013-01-30 09:42:00,76.7,67.0,30.09,NE,48,0.0,6.0,71,0.00,,,0.00,weatherlink.com 1.10,2013-01-30 14:42:00,
2013-01-30 09:57:00,76.9,67.0,30.10,SSE,148,3.0,5.0,71,0.00,,,0.00,weatherlink.com 1.10,2013-01-30 14:57:00,
2013-01-30 10:12:00,78.4,66.0,30.10,ESE,121,8.0,8.0,66,0.00,,,0.00,weatherlink.com 1.10,2013-01-30 15:12:00,
2013-01-30 10:27:00,79.1,67.0,30.09,East,80,0.0,9.0,66,0.00,,,0.00,weatherlink.com 1.10,2013-01-30 15:27:00,
2013-01-30 10:42:00,79.1,67.0,30.08,NNW,329,0.0,5.0,67,0.00,,,0.00,weatherlink.com 1.10,2013-01-30 15:42:00,
2013-01-30 10:57:00,79.6,67.0,30.07,WSW,257,1.0,5.0,66,0.00,,,0.00,weatherlink.com 1.10,2013-01-30 15:57:00,
2013-01-30 11:12:00,80.6,68.0,30.06,WSW,245,2.0,5.0,65,0.00,,,0.00,weatherlink.com 1.10,2013-01-30 16:12:00,
2013-01-30 11:27:00,80.9,68.0,30.06,North,11,0.0,4.0,66,0.00,,,0.00,weatherlink.com 1.10,2013-01-30 16:27:00,
2013-01-30 11:42:00,81.2,68.0,30.05,North,5,2.0,4.0,65,0.00,,,0.00,weatherlink.com 1.10,2013-01-30 16:42:00,
2013-01-30 11:57:00,81.5,68.0,30.05,NE,44,0.0,6.0,64,0.00,,,0.00,weatherlink.com 1.10,2013-01-30 16:57:00,
2013-01-30 12:12:00,81.5,69.0,30.03,South,184,0.0,5.0,66,0.00,,,0.00,weatherlink.com 1.10,2013-01-30 17:12:00,
2013-01-30 12:27:00,82.0,69.0,30.02,ENE,59,1.0,7.0,65,0.00,,,0.00,weatherlink.com 1.10,2013-01-30 17:27:00,
2013-01-30 12:42:00,82.1,68.0,30.01,ENE,57,0.0,8.0,63,0.00,,,0.00,weatherlink.com 1.10,2013-01-30 17:42:00,
2013-01-30 12:58:00,80.6,69.0,29.99,NNE,32,1.0,7.0,67,0.00,,,0.00,weatherlink.com 1.10,2013-01-30 17:58:00,
2013-01-30 13:12:00,81.7,69.0,29.99,WSW,240,0.0,7.0,65,0.00,,,0.00,weatherlink.com 1.10,2013-01-30 18:12:00,
2013-01-30 13:27:00,82.0,69.0,29.98,WNW,293,1.0,5.0,64,0.00,,,0.00,weatherlink.com 1.10,2013-01-30 18:27:00,
2013-01-30 13:42:00,82.4,69.0,29.98,NNE,32,2.0,8.0,65,0.00,,,0.00,weatherlink.com 1.10,2013-01-30 18:42:00,
2013-01-30 13:58:00,82.9,69.0,29.98,SSW,196,0.0,9.0,63,0.00,,,0.00,weatherlink.com 1.10,2013-01-30 18:58:00,
2013-01-30 14:13:00,80.6,69.0,29.98,SSW,194,1.0,7.0,67,0.00,,,0.00,weatherlink.com 1.10,2013-01-30 19:13:00,
2013-01-30 14:27:00,80.6,69.0,29.97,NE,45,0.0,5.0,67,0.00,,,0.00,weatherlink.com 1.10,2013-01-30 19:27:00,
2013-01-30 14:42:00,79.2,68.0,29.98,SSE,149,2.0,7.0,69,0.00,,,0.00,weatherlink.com 1.10,2013-01-30 19:42:00,
2013-01-30 14:58:00,79.2,68.0,29.97,SW,223,0.0,5.0,69,0.00,,,0.00,weatherlink.com 1.10,2013-01-30 19:58:00,
2013-01-30 15:13:00,79.1,69.0,29.98,NE,54,0.0,6.0,71,0.00,,,0.00,weatherlink.com 1.10,2013-01-30 20:13:00,
2013-01-30 15:28:00,78.0,68.0,29.99,SSW,194,1.0,11.0,71,0.00,,,0.00,weatherlink.com 1.10,2013-01-30 20:28:00,
2013-01-30 15:42:00,78.2,68.0,29.99,ENE,75,0.0,4.0,72,0.00,,,0.00,weatherlink.com 1.10,2013-01-30 20:42:00,
2013-01-30 15:57:00,78.2,68.0,29.99,NNW,344,0.0,4.0,71,0.00,,,0.00,weatherlink.com 1.10,2013-01-30 20:57:00,
2013-01-30 16:13:00,78.3,69.0,30.00,South,191,0.0,3.0,72,0.00,,,0.00,weatherlink.com 1.10,2013-01-30 21:13:00,
2013-01-30 16:28:00,78.2,68.0,30.00,SE,135,0.0,3.0,72,0.00,,,0.00,weatherlink.com 1.10,2013-01-30 21:28:00,
2013-01-30 16:43:00,77.9,69.0,30.01,North,360,0.0,2.0,73,0.00,,,0.00,weatherlink.com 1.10,2013-01-30 21:43:00,
2013-01-30 16:57:00,77.9,69.0,30.01,ESE,123,0.0,3.0,74,0.00,,,0.00,weatherlink.com 1.10,2013-01-30 21:57:00,
2013-01-30 17:12:00,77.4,69.0,30.01,NE,34,0.0,3.0,75,0.00,,,0.00,weatherlink.com 1.10,2013-01-30 22:12:00,
2013-01-30 17:28:00,77.0,69.0,30.00,SSE,151,2.0,2.0,76,0.00,,,0.00,weatherlink.com 1.10,2013-01-30 22:28:00,
2013-01-30 17:43:00,76.4,69.0,30.00,South,189,1.0,2.0,77,0.00,,,0.00,weatherlink.com 1.10,2013-01-30 22:43:00,
2013-01-30 17:58:00,75.8,69.0,30.00,NE,44,1.0,2.0,79,0.00,,,0.00,weatherlink.com 1.10,2013-01-30 22:58:00,
2013-01-30 18:12:00,75.1,69.0,29.99,WSW,258,0.0,1.0,80,0.00,,,0.00,weatherlink.com 1.10,2013-01-30 23:12:00,
2013-01-30 18:27:00,74.4,69.0,29.98,ENE,76,0.0,2.0,82,0.00,,,0.00,weatherlink.com 1.10,2013-01-30 23:27:00,
2013-01-30 18:42:00,74.0,69.0,29.98,WSW,250,0.0,2.0,83,0.00,,,0.00,weatherlink.com 1.10,2013-01-30 23:42:00,
2013-01-30 18:58:00,73.5,68.0,29.98,WSW,250,0.0,1.0,84,0.00,,,0.00,weatherlink.com 1.10,2013-01-30 23:58:00,
2013-01-30 19:13:00,73.0,69.0,29.98,WSW,250,0.0,0.0,86,0.00,,,0.00,weatherlink.com 1.10,2013-01-31 00:13:00,
2013-01-30 19:28:00,72.4,68.0,29.99,WSW,250,0.0,1.0,87,0.00,,,0.00,weatherlink.com 1.10,2013-01-31 00:28:00,
2013-01-30 19:43:00,72.0,68.0,29.99,WSW,250,0.0,0.0,88,0.00,,,0.00,weatherlink.com 1.10,2013-01-31 00:43:00,
2013-01-30 19:58:00,71.7,68.0,29.99,WSW,250,0.0,1.0,89,0.00,,,0.00,weatherlink.com 1.10,2013-01-31 00:58:00,
2013-01-30 20:12:00,71.3,68.0,29.98,WSW,250,0.0,0.0,89,0.00,,,0.00,weatherlink.com 1.10,2013-01-31 01:12:00,
2013-01-30 20:27:00,71.1,68.0,29.99,WSW,250,0.0,1.0,90,0.00,,,0.00,weatherlink.com 1.10,2013-01-31 01:27:00,
2013-01-30 20:43:00,70.9,68.0,30.00,WSW,250,0.0,0.0,91,0.00,,,0.00,weatherlink.com 1.10,2013-01-31 01:43:00,
2013-01-30 20:58:00,70.6,68.0,30.00,WSW,250,0.0,0.0,91,0.00,,,0.00,weatherlink.com 1.10,2013-01-31 01:58:00,
2013-01-30 21:13:00,70.4,68.0,30.00,WSW,250,0.0,0.0,92,0.00,,,0.00,weatherlink.com 1.10,2013-01-31 02:13:00,
2013-01-30 21:27:00,70.1,68.0,30.00,WSW,250,0.0,0.0,92,0.00,,,0.00,weatherlink.com 1.10,2013-01-31 02:27:00,
2013-01-30 21:42:00,69.7,67.0,30.00,WSW,250,0.0,0.0,92,0.00,,,0.00,weatherlink.com 1.10,2013-01-31 02:42:00,
2013-01-30 21:58:00,69.7,68.0,30.01,WSW,250,0.0,0.0,94,0.00,,,0.00,weatherlink.com 1.10,2013-01-31 02:58:00,
2013-01-30 22:13:00,69.7,68.0,30.01,WSW,250,0.0,0.0,94,0.00,,,0.00,weatherlink.com 1.10,2013-01-31 03:13:00,
2013-01-30 22:28:00,69.5,68.0,30.01,WSW,250,0.0,0.0,94,0.00,,,0.00,weatherlink.com 1.10,2013-01-31 03:28:00,
2013-01-30 22:43:00,69.3,68.0,30.01,WSW,250,0.0,0.0,94,0.00,,,0.00,weatherlink.com 1.10,2013-01-31 03:43:00,
2013-01-30 22:57:00,69.3,68.0,30.00,West,267,0.0,1.0,94,0.00,,,0.00,weatherlink.com 1.10,2013-01-31 03:57:00,
2013-01-30 23:12:00,69.7,68.0,30.00,West,267,0.0,1.0,95,0.00,,,0.00,weatherlink.com 1.10,2013-01-31 04:12:00,
2013-01-30 23:28:00,69.8,68.0,30.00,West,267,0.0,0.0,94,0.00,,,0.00,weatherlink.com 1.10,2013-01-31 04:28:00,
2013-01-30 23:43:00,69.8,68.0,30.00,West,267,0.0,0.0,94,0.00,,,0.00,weatherlink.com 1.10,2013-01-31 04:43:00,
2013-01-30 23:58:00,69.7,68.0,29.99,West,267,0.0,1.0,95,0.00,,,0.00,weatherlink.com 1.10,2013-01-31 04:58:00,